Time,TemperatureF,DewpointF,PressureIn,WindDirection,WindDirectionDegrees,WindSpeedMPH,WindSpeedGustMPH,Humidity,HourlyPrecipIn,Conditions,Clouds,dailyrainin,SoftwareType,DateUTC
2013-10-15 00:14:00,58.0,57.0,-100.00,South,189,3.0,4.0,96,0.00,,,0.39,,2013-10-15 04:14:00,
2013-10-15 00:24:00,58.0,57.0,-100.00,South,189,3.0,4.0,96,0.00,,,0.39,,2013-10-15 04:24:00,
2013-10-15 00:54:00,58.0,57.0,-100.00,South,191,2.0,4.0,96,0.00,,,0.39,,2013-10-15 04:54:00,
2013-10-15 01:03:00,58.0,57.0,-100.00,South,191,2.0,4.0,96,0.00,,,0.39,,2013-10-15 05:03:00,
2013-10-15 01:22:00,57.0,56.0,-100.00,SSE,158,3.0,3.0,96,0.00,,,0.39,,2013-10-15 05:22:00,
2013-10-15 01:52:00,57.0,56.0,-100.00,South,169,2.0,3.0,98,0.00,,,0.24,,2013-10-15 05:52:00,
2013-10-15 02:12:00,57.0,56.0,-100.00,South,181,3.0,4.0,99,0.00,,,0.20,,2013-10-15 06:12:00,
2013-10-15 02:22:00,57.0,56.0,-100.00,South,181,3.0,4.0,99,0.00,,,0.20,,2013-10-15 06:22:00,
2013-10-15 02:52:00,57.0,56.0,-100.00,SSE,164,1.0,1.0,99,0.00,,,0.10,,2013-10-15 06:52:00,
2013-10-15 03:12:00,56.0,55.0,-100.00,NNW,337,0.0,1.0,99,0.00,,,0.10,,2013-10-15 07:12:00,
2013-10-15 03:22:00,56.0,55.0,-100.00,NNW,337,0.0,1.0,99,0.00,,,0.10,,2013-10-15 07:22:00,
2013-10-15 03:52:00,54.0,54.0,-100.00,West,260,0.0,0.0,100,0.00,,,0.06,,2013-10-15 07:52:00,
2013-10-15 04:12:00,54.0,54.0,-100.00,WSW,258,0.0,0.0,100,0.00,,,0.06,,2013-10-15 08:12:00,
2013-10-15 04:22:00,54.0,54.0,-100.00,WSW,258,0.0,0.0,100,0.00,,,0.06,,2013-10-15 08:22:00,
2013-10-15 04:52:00,54.0,54.0,-100.00,NNW,329,0.0,0.0,100,0.00,,,0.04,,2013-10-15 08:52:00,
2013-10-15 05:12:00,54.0,54.0,-100.00,WNW,295,0.0,1.0,100,0.00,,,0.02,,2013-10-15 09:12:00,
2013-10-15 05:22:00,54.0,54.0,-100.00,WNW,295,0.0,1.0,100,0.00,,,0.02,,2013-10-15 09:22:00,
2013-10-15 06:13:00,53.0,53.0,-100.00,North,350,1.0,2.0,100,0.00,,,0.00,,2013-10-15 10:13:00,
2013-10-15 06:23:00,53.0,53.0,-100.00,North,350,1.0,2.0,100,0.00,,,0.00,,2013-10-15 10:23:00,
2013-10-15 06:43:00,54.0,54.0,-100.00,NNW,335,1.0,2.0,100,0.00,,,0.00,,2013-10-15 10:43:00,
2013-10-15 06:53:00,54.0,54.0,-100.00,North,357,1.0,3.0,100,0.00,,,0.00,,2013-10-15 10:53:00,
2013-10-15 07:12:00,55.0,55.0,-100.00,ESE,123,2.0,3.0,100,0.00,,,0.00,,2013-10-15 11:12:00,
2013-10-15 07:22:00,55.0,55.0,-100.00,ESE,123,2.0,3.0,100,0.00,,,0.00,,2013-10-15 11:22:00,
2013-10-15 07:52:00,54.0,54.0,-100.00,North,349,4.0,5.0,100,0.00,,,0.00,,2013-10-15 11:52:00,
2013-10-15 08:12:00,54.0,54.0,-100.00,North,1,3.0,3.0,100,0.00,,,0.00,,2013-10-15 12:12:00,
2013-10-15 08:22:00,54.0,54.0,-100.00,North,1,3.0,3.0,100,0.00,,,0.00,,2013-10-15 12:22:00,
2013-10-15 08:42:00,55.0,55.0,-100.00,North,6,2.0,3.0,100,0.00,,,0.00,,2013-10-15 12:42:00,
2013-10-15 08:52:00,55.0,55.0,-100.00,North,10,2.0,3.0,100,0.00,,,0.00,,2013-10-15 12:52:00,
2013-10-15 09:22:00,55.0,55.0,-100.00,NE,44,2.0,4.0,100,0.00,,,0.00,,2013-10-15 13:22:00,
2013-10-15 09:52:00,56.0,56.0,-100.00,North,354,2.0,4.0,100,0.00,,,0.00,,2013-10-15 13:52:00,
2013-10-15 10:22:00,56.0,56.0,-100.00,NNE,16,5.0,6.0,100,0.00,,,0.00,,2013-10-15 14:22:00,
2013-10-15 10:42:00,57.0,56.0,-100.00,NNE,20,4.0,6.0,96,0.00,,,0.00,,2013-10-15 14:42:00,
2013-10-15 10:52:00,58.0,55.0,-100.00,NNE,18,4.0,5.0,91,0.00,,,0.00,,2013-10-15 14:52:00,
2013-10-15 11:11:00,59.0,55.0,-100.00,ENE,72,4.0,6.0,89,0.00,,,0.00,,2013-10-15 15:11:00,
2013-10-15 11:22:00,59.0,55.0,-100.00,ENE,72,4.0,6.0,89,0.00,,,0.00,,2013-10-15 15:22:00,
2013-10-15 11:53:00,60.0,54.0,-100.00,NE,44,4.0,7.0,80,0.00,,,0.00,,2013-10-15 15:53:00,
2013-10-15 12:13:00,61.0,56.0,-100.00,ENE,59,3.0,6.0,83,0.00,,,0.00,,2013-10-15 16:13:00,
2013-10-15 12:23:00,61.0,56.0,-100.00,ENE,59,3.0,6.0,83,0.00,,,0.00,,2013-10-15 16:23:00,
2013-10-15 12:53:00,63.0,54.0,-100.00,North,11,5.0,8.0,73,0.00,,,0.00,,2013-10-15 16:53:00,
2013-10-15 13:03:00,63.0,54.0,-100.00,North,11,5.0,8.0,73,0.00,,,0.00,,2013-10-15 17:03:00,
2013-10-15 13:22:00,64.0,55.0,-100.00,NE,41,4.0,6.0,72,0.00,,,0.00,,2013-10-15 17:22:00,
2013-10-15 13:42:00,65.0,56.0,-100.00,NNW,347,5.0,6.0,73,0.00,,,0.00,,2013-10-15 17:42:00,
2013-10-15 13:53:00,66.0,55.0,-100.00,NE,52,7.0,9.0,66,0.00,,,0.00,,2013-10-15 17:53:00,
2013-10-15 14:12:00,67.0,54.0,-100.00,SW,233,2.0,3.0,64,0.00,,,0.00,,2013-10-15 18:12:00,
2013-10-15 14:22:00,67.0,54.0,-100.00,SW,233,2.0,3.0,64,0.00,,,0.00,,2013-10-15 18:22:00,
2013-10-15 14:42:00,67.0,56.0,-100.00,ESE,103,3.0,4.0,68,0.00,,,0.00,,2013-10-15 18:42:00,
2013-10-15 14:52:00,67.0,56.0,-100.00,NNE,16,3.0,5.0,69,0.00,,,0.00,,2013-10-15 18:52:00,
2013-10-15 15:12:00,68.0,55.0,-100.00,North,357,4.0,5.0,64,0.00,,,0.00,,2013-10-15 19:12:00,
2013-10-15 15:22:00,68.0,55.0,-100.00,North,357,4.0,5.0,64,0.00,,,0.00,,2013-10-15 19:22:00,
2013-10-15 15:42:00,68.0,54.0,-100.00,NNW,333,3.0,5.0,61,0.00,,,0.00,,2013-10-15 19:42:00,
2013-10-15 15:52:00,68.0,55.0,-100.00,SE,141,2.0,4.0,63,0.00,,,0.00,,2013-10-15 19:52:00,
2013-10-15 16:12:00,69.0,55.0,-100.00,NE,35,4.0,5.0,62,0.00,,,0.00,,2013-10-15 20:12:00,
2013-10-15 16:22:00,69.0,55.0,-100.00,NE,35,4.0,5.0,62,0.00,,,0.00,,2013-10-15 20:22:00,
2013-10-15 16:52:00,69.0,55.0,-100.00,WSW,253,1.0,2.0,61,0.00,,,0.00,,2013-10-15 20:52:00,
2013-10-15 17:13:00,68.0,55.0,-100.00,NW,309,3.0,4.0,61,0.00,,,0.00,,2013-10-15 21:13:00,
2013-10-15 17:22:00,68.0,55.0,-100.00,NW,309,3.0,4.0,61,0.00,,,0.00,,2013-10-15 21:22:00,
2013-10-15 17:44:00,68.0,55.0,-100.00,NNW,330,4.0,4.0,63,0.00,,,0.00,,2013-10-15 21:44:00,
2013-10-15 17:54:00,68.0,55.0,-100.00,NW,325,2.0,3.0,62,0.00,,,0.00,,2013-10-15 21:54:00,
2013-10-15 18:13:00,68.0,56.0,-100.00,NW,323,1.0,2.0,66,0.00,,,0.00,,2013-10-15 22:13:00,
2013-10-15 18:23:00,68.0,56.0,-100.00,NW,323,1.0,2.0,66,0.00,,,0.00,,2013-10-15 22:23:00,
2013-10-15 18:53:00,66.0,55.0,-100.00,NNW,330,0.0,0.0,68,0.00,,,0.00,,2013-10-15 22:53:00,
2013-10-15 19:12:00,65.0,57.0,-100.00,SSW,208,0.0,0.0,76,0.00,,,0.00,,2013-10-15 23:12:00,
2013-10-15 19:22:00,65.0,57.0,-100.00,SSW,208,0.0,0.0,76,0.00,,,0.00,,2013-10-15 23:22:00,
2013-10-15 19:52:00,62.0,57.0,-100.00,SSW,205,1.0,2.0,86,0.00,,,0.00,,2013-10-15 23:52:00,
2013-10-15 20:12:00,61.0,57.0,-100.00,North,353,2.0,2.0,87,0.00,,,0.00,,2013-10-16 00:12:00,
2013-10-15 20:22:00,61.0,57.0,-100.00,North,353,2.0,2.0,87,0.00,,,0.00,,2013-10-16 00:22:00,
2013-10-15 20:52:00,60.0,58.0,-100.00,SSE,152,0.0,2.0,91,0.00,,,0.00,,2013-10-16 00:52:00,
2013-10-15 21:11:00,60.0,57.0,-100.00,SSE,158,1.0,2.0,90,0.00,,,0.00,,2013-10-16 01:11:00,
2013-10-15 21:22:00,60.0,57.0,-100.00,SSE,158,1.0,2.0,90,0.00,,,0.00,,2013-10-16 01:22:00,
2013-10-15 21:52:00,58.0,57.0,-100.00,SSW,192,0.0,1.0,95,0.00,,,0.00,,2013-10-16 01:52:00,
2013-10-15 22:12:00,57.0,56.0,-100.00,NE,35,0.0,1.0,95,0.00,,,0.00,,2013-10-16 02:12:00,
2013-10-15 22:22:00,57.0,56.0,-100.00,NE,35,0.0,1.0,95,0.00,,,0.00,,2013-10-16 02:22:00,
2013-10-15 22:52:00,57.0,56.0,-100.00,West,270,1.0,1.0,95,0.00,,,0.00,,2013-10-16 02:52:00,
2013-10-15 23:11:00,58.0,54.0,-100.00,SSE,167,1.0,2.0,88,0.00,,,0.00,,2013-10-16 03:11:00,
2013-10-15 23:22:00,58.0,54.0,-100.00,SSE,167,1.0,2.0,88,0.00,,,0.00,,2013-10-16 03:22:00,
2013-10-15 23:55:00,57.0,54.0,-100.00,South,189,2.0,3.0,88,0.00,,,0.00,,2013-10-16 03:55:00,